TimeMST,TemperatureF,Dew PointF,Humidity,Sea Level PressureIn,VisibilityMPH,Wind Direction,Wind SpeedMPH,Gust SpeedMPH,PrecipitationIn,Events,Conditions,WindDirDegrees,DateUTC
12:15 AM,28.4,24.8,86,30.11,10.0,SE,13.8,18.4,N/A,,Clear,140,2012-11-16 07:15:00
12:35 AM,26.6,24.8,93,30.10,10.0,SSE,11.5,-,N/A,,Clear,150,2012-11-16 07:35:00
12:55 AM,28.4,24.8,86,30.09,10.0,SSE,12.7,-,N/A,,Clear,150,2012-11-16 07:55:00
1:15 AM,28.4,24.8,86,30.09,10.0,SSE,12.7,-,N/A,,Clear,150,2012-11-16 08:15:00
1:35 AM,28.4,24.8,86,30.09,10.0,SSE,12.7,-,N/A,,Clear,150,2012-11-16 08:35:00
1:55 AM,26.6,24.8,93,30.09,10.0,SSE,11.5,-,N/A,,Clear,150,2012-11-16 08:55:00
2:15 AM,26.6,24.8,93,30.07,10.0,SSE,11.5,-,N/A,,Clear,160,2012-11-16 09:15:00
2:35 AM,26.6,24.8,93,30.06,10.0,SSE,12.7,-,N/A,,Clear,160,2012-11-16 09:35:00
2:55 AM,26.6,24.8,93,30.05,10.0,SSE,13.8,-,N/A,,Clear,160,2012-11-16 09:55:00
3:15 AM,28.4,24.8,86,30.04,10.0,SSE,15.0,-,N/A,,Clear,160,2012-11-16 10:15:00
3:35 AM,28.4,24.8,86,30.04,10.0,South,11.5,-,N/A,,Clear,170,2012-11-16 10:35:00
3:55 AM,28.4,24.8,86,30.03,10.0,South,11.5,-,N/A,,Clear,180,2012-11-16 10:55:00
4:15 AM,28.4,24.8,86,30.03,10.0,South,11.5,-,N/A,,Clear,170,2012-11-16 11:15:00
4:35 AM,26.6,24.8,93,30.02,10.0,South,9.2,-,N/A,,Clear,170,2012-11-16 11:35:00
4:55 AM,26.6,24.8,93,30.02,10.0,South,10.4,-,N/A,,Clear,170,2012-11-16 11:55:00
5:15 AM,26.6,24.8,93,30.02,10.0,South,11.5,-,N/A,,Clear,170,2012-11-16 12:15:00
5:35 AM,26.6,24.8,93,30.01,10.0,South,10.4,-,N/A,,Clear,170,2012-11-16 12:35:00
5:55 AM,26.6,24.8,93,30.01,10.0,SSE,11.5,-,N/A,,Clear,160,2012-11-16 12:55:00
6:15 AM,26.6,24.8,93,30.01,10.0,South,15.0,-,N/A,,Clear,170,2012-11-16 13:15:00
6:35 AM,26.6,24.8,93,30.00,10.0,South,16.1,-,N/A,,Clear,170,2012-11-16 13:35:00
6:55 AM,26.6,24.8,93,30.00,10.0,South,11.5,-,N/A,,Clear,180,2012-11-16 13:55:00
7:15 AM,26.6,24.8,93,29.99,10.0,SSE,10.4,-,N/A,,Partly Cloudy,160,2012-11-16 14:15:00
7:35 AM,26.6,24.8,93,29.99,10.0,South,11.5,-,N/A,,Partly Cloudy,170,2012-11-16 14:35:00
7:55 AM,28.4,24.8,86,30.00,10.0,SSE,10.4,-,N/A,,Clear,160,2012-11-16 14:55:00
8:15 AM,26.6,24.8,93,29.99,10.0,South,8.1,-,N/A,,Clear,170,2012-11-16 15:15:00
8:35 AM,26.6,24.8,93,29.98,10.0,SSE,6.9,-,N/A,,Clear,160,2012-11-16 15:35:00
8:55 AM,30.2,24.8,80,29.98,10.0,South,6.9,-,N/A,,Clear,180,2012-11-16 15:55:00
9:15 AM,32.0,26.6,80,29.98,10.0,South,6.9,-,N/A,,Clear,180,2012-11-16 16:15:00
9:35 AM,32.0,26.6,80,29.98,10.0,South,8.1,-,N/A,,Clear,170,2012-11-16 16:35:00
9:55 AM,33.8,26.6,75,29.99,10.0,South,5.8,-,N/A,,Clear,190,2012-11-16 16:55:00
10:15 AM,35.6,26.6,70,29.99,10.0,South,8.1,-,N/A,,Clear,170,2012-11-16 17:15:00
10:35 AM,35.6,28.4,75,29.98,10.0,South,6.9,-,N/A,,Clear,180,2012-11-16 17:35:00
10:55 AM,37.4,28.4,70,29.97,10.0,SSE,6.9,-,N/A,,Clear,150,2012-11-16 17:55:00
11:15 AM,39.2,28.4,65,29.97,10.0,South,5.8,-,N/A,,Clear,170,2012-11-16 18:15:00
11:35 AM,39.2,28.4,65,29.97,10.0,South,6.9,-,N/A,,Clear,170,2012-11-16 18:35:00
11:55 AM,41.0,30.2,65,29.96,10.0,SSW,8.1,-,N/A,,Clear,200,2012-11-16 18:55:00
12:15 PM,41.0,30.2,65,29.95,10.0,SSW,8.1,-,N/A,,Clear,210,2012-11-16 19:15:00
12:35 PM,42.8,28.4,57,29.95,10.0,SSW,8.1,-,N/A,,Clear,210,2012-11-16 19:35:00
12:55 PM,44.6,26.6,49,29.95,10.0,SW,8.1,-,N/A,,Clear,220,2012-11-16 19:55:00
1:15 PM,42.8,28.4,57,29.95,10.0,SW,9.2,-,N/A,,Clear,230,2012-11-16 20:15:00
1:35 PM,42.8,28.4,57,29.94,10.0,SW,11.5,-,N/A,,Clear,220,2012-11-16 20:35:00
1:55 PM,41.0,28.4,61,29.94,10.0,SW,10.4,-,N/A,,Clear,230,2012-11-16 20:55:00
2:15 PM,41.0,26.6,57,29.93,10.0,SW,10.4,-,N/A,,Clear,220,2012-11-16 21:15:00
2:35 PM,41.0,28.4,61,29.93,10.0,SSW,5.8,-,N/A,,Clear,210,2012-11-16 21:35:00
2:55 PM,39.2,28.4,65,29.94,10.0,Calm,Calm,-,N/A,,Clear,0,2012-11-16 21:55:00
3:15 PM,41.0,28.4,61,29.94,10.0,Calm,Calm,-,N/A,,Clear,0,2012-11-16 22:15:00
3:35 PM,41.0,28.4,61,29.94,10.0,Calm,Calm,-,N/A,,Clear,0,2012-11-16 22:35:00
3:55 PM,41.0,28.4,61,29.95,10.0,SSW,4.6,-,N/A,,Clear,210,2012-11-16 22:55:00
4:15 PM,39.2,28.4,65,29.95,10.0,SSW,4.6,-,N/A,,Clear,210,2012-11-16 23:15:00
4:35 PM,39.2,28.4,65,29.95,10.0,SW,3.5,-,N/A,,Clear,220,2012-11-16 23:35:00
4:55 PM,33.8,28.4,81,29.96,10.0,Calm,Calm,-,N/A,,Clear,0,2012-11-16 23:55:00
5:15 PM,33.8,28.4,81,29.97,10.0,South,3.5,-,N/A,,Clear,180,2012-11-17 00:15:00
5:35 PM,32.0,28.4,87,29.96,10.0,SSW,3.5,-,N/A,,Clear,210,2012-11-17 00:35:00
5:55 PM,32.0,28.4,87,29.96,10.0,Calm,Calm,-,N/A,,Clear,0,2012-11-17 00:55:00
6:15 PM,32.0,28.4,87,29.96,10.0,South,3.5,-,N/A,,Clear,190,2012-11-17 01:15:00
6:55 PM,32.0,26.6,80,29.96,10.0,SSE,3.5,-,N/A,,Clear,160,2012-11-17 01:55:00
7:15 PM,32.0,26.6,80,29.96,10.0,SSE,3.5,-,N/A,,Clear,160,2012-11-17 02:15:00
7:35 PM,32.0,26.6,80,29.96,10.0,Calm,Calm,-,N/A,,Clear,0,2012-11-17 02:35:00
7:55 PM,30.2,26.6,86,29.96,10.0,Calm,Calm,-,N/A,,Mostly Cloudy,0,2012-11-17 02:55:00
8:15 PM,32.0,26.6,80,29.96,10.0,SE,3.5,-,N/A,,Mostly Cloudy,140,2012-11-17 03:15:00
8:55 PM,30.2,28.4,93,29.96,10.0,SSE,6.9,-,N/A,,Mostly Cloudy,150,2012-11-17 03:55:00
9:15 PM,32.0,28.4,87,29.97,10.0,SSW,3.5,-,N/A,,Overcast,200,2012-11-17 04:15:00
9:35 PM,32.0,28.4,87,29.97,10.0,WSW,3.5,-,N/A,,Overcast,250,2012-11-17 04:35:00
9:55 PM,32.0,28.4,87,29.97,10.0,Calm,Calm,-,N/A,,Mostly Cloudy,0,2012-11-17 04:55:00
10:15 PM,32.0,28.4,87,29.97,10.0,Calm,Calm,-,N/A,,Overcast,0,2012-11-17 05:15:00
10:35 PM,32.0,28.4,87,29.96,10.0,SE,5.8,-,N/A,,Overcast,140,2012-11-17 05:35:00
10:55 PM,33.8,28.4,81,29.97,10.0,WSW,3.5,-,N/A,,Overcast,240,2012-11-17 05:55:00
11:15 PM,35.6,26.6,70,29.97,10.0,Calm,Calm,-,N/A,,Overcast,0,2012-11-17 06:15:00
11:35 PM,32.0,28.4,87,29.96,10.0,North,6.9,-,N/A,,Mostly Cloudy,350,2012-11-17 06:35:00
11:55 PM,32.0,28.4,87,29.97,10.0,Calm,Calm,-,N/A,,Mostly Cloudy,0,2012-11-17 06:55:00